Tracking 27111 objects as of 29-Mar-2023
HD Live streaming from Space Station
objects crossing your sky now

STARLINK-1748

Track STARLINK-1748 now!
10-day predictions
STARLINK-1748 is classified as:


NORAD ID: 46570
Int'l Code: 2020-070AQ
Perigee: 506.3 km
Apogee: 511.1 km
Inclination: 53.1 °
Period: 94.6 minutes
Semi major axis: 6879 km
RCS: Unknown
Launch date: October 6, 2020
Source: United States (US)
Launch site: AIR FORCE EASTERN TEST RANGE (AFETR)
Your satellite tracking list
Your tracking list is empty




NASA's NSSDC Master Catalog

Two Line Element Set (TLE):
1 46570U 20070AQ  23087.54861698  .00018035  00000-0  80594-3 0  9994
2 46570  53.0579 298.7223 0003512 145.7273 214.3950 15.21407574137625
Source of the keplerian elements: AFSPC